• In Germany
  • List of Countries
  • For 7 days
  • Water Temperature
  • Satellite Maps
  • Weather Map
  • Weather Widgets
  • user-avatar
    Login

    Hourly Weather Kościerzyna

    Today, 23 October, Monday

    Time Temperature Precipitation Wind Pressure Humidity
    00:00 +8°C° 0 mm 2 mps 743 mmHg 95%
    01:00 +7°C° 0 mm 2 mps 743 mmHg 95%
    02:00 +8°C° 0 mm 1 mps 743 mmHg 96%
    03:00 +8°C° 0 mm 1 mps 743 mmHg 96%
    04:00 +7°C° 0 mm 1 mps 743 mmHg 96%
    05:00 +7°C° 0 mm 1 mps 743 mmHg 96%
    06:00 +7°C° 0 mm 1 mps 744 mmHg 96%
    07:00 +7°C° 0 mm 1 mps 744 mmHg 96%
    08:00 +8°C° 0 mm 1 mps 744 mmHg 92%
    09:00 +10°C° 0 mm 1 mps 745 mmHg 88%
    10:00 +11°C° 0 mm 1 mps 745 mmHg 84%
    11:00 +11°C° 0.1 mm 1 mps 745 mmHg 81%
    12:00 +12°C° 0.1 mm 2 mps 746 mmHg 79%
    13:00 +12°C° 0.1 mm 2 mps 746 mmHg 77%
    14:00 +12°C° 0.1 mm 2 mps 746 mmHg 79%
    15:00 +10°C° 0.1 mm 2 mps 747 mmHg 82%
    16:00 +10°C° 0.1 mm 2 mps 747 mmHg 85%
    17:00 +9°C° 0 mm 2 mps 747 mmHg 87%
    18:00 +9°C° 0 mm 2 mps 748 mmHg 89%
    19:00 +8°C° 0 mm 2 mps 748 mmHg 91%
    20:00 +8°C° 0 mm 2 mps 749 mmHg 92%
    21:00 +7°C° 0 mm 2 mps 749 mmHg 92%
    22:00 +7°C° 0 mm 2 mps 750 mmHg 93%
    23:00 +7°C° 0 mm 2 mps 750 mmHg 93%

    Tomorrow, 24 October, Tuesday

    Time Temperature Precipitation Wind Pressure Humidity
    00:00 +7°C° 0 mm 2 mps 750 mmHg 93%
    01:00 +7°C° 0 mm 2 mps 751 mmHg 93%
    02:00 +7°C° 0 mm 2 mps 751 mmHg 93%
    03:00 +7°C° 0 mm 2 mps 751 mmHg 92%
    04:00 +7°C° 0 mm 2 mps 751 mmHg 92%
    05:00 +7°C° 0 mm 2 mps 752 mmHg 91%
    06:00 +7°C° 0 mm 2 mps 752 mmHg 91%
    07:00 +7°C° 0 mm 3 mps 752 mmHg 90%
    08:00 +7°C° 0 mm 3 mps 753 mmHg 87%
    09:00 +7°C° 0 mm 3 mps 753 mmHg 85%
    10:00 +8°C° 0 mm 3 mps 753 mmHg 82%
    11:00 +8°C° 0 mm 3 mps 753 mmHg 79%
    12:00 +9°C° 0 mm 3 mps 753 mmHg 76%
    13:00 +9°C° 0 mm 3 mps 753 mmHg 73%
    14:00 +9°C° 0 mm 3 mps 753 mmHg 74%
    15:00 +9°C° 0 mm 3 mps 753 mmHg 75%
    16:00 +9°C° 0 mm 3 mps 753 mmHg 76%
    17:00 +9°C° 0 mm 3 mps 753 mmHg 77%
    18:00 +8°C° 0 mm 3 mps 753 mmHg 78%
    19:00 +7°C° 0 mm 4 mps 753 mmHg 79%
    20:00 +7°C° 0 mm 4 mps 753 mmHg 79%
    21:00 +7°C° 0 mm 4 mps 753 mmHg 78%
    22:00 +7°C° 0 mm 5 mps 753 mmHg 78%
    23:00 +7°C° 0 mm 4 mps 753 mmHg 80%

    Day after tomorrow, 25 October, Wednesday

    Time Temperature Precipitation Wind Pressure Humidity
    00:00 +6°C° 0 mm 4 mps 753 mmHg 81%
    01:00 +6°C° 0 mm 4 mps 753 mmHg 82%
    02:00 +6°C° 0.2 mm 4 mps 752 mmHg 84%
    03:00 +6°C° 0.2 mm 5 mps 752 mmHg 85%
    04:00 +6°C° 0.2 mm 5 mps 751 mmHg 86%
    05:00 +5°C° 1.3 mm 6 mps 751 mmHg 87%
    06:00 +5°C° 1.3 mm 6 mps 750 mmHg 87%
    07:00 +5°C° 1.3 mm 7 mps 750 mmHg 88%
    08:00 +6°C° 2.5 mm 7 mps 750 mmHg 88%
    09:00 +6°C° 2.5 mm 7 mps 749 mmHg 89%
    10:00 +6°C° 2.5 mm 7 mps 749 mmHg 90%
    11:00 +8°C° 0.3 mm 7 mps 749 mmHg 90%
    12:00 +9°C° 0.3 mm 6 mps 749 mmHg 90%
    13:00 +9°C° 0.3 mm 6 mps 748 mmHg 91%
    14:00 +10°C° 0.2 mm 6 mps 748 mmHg 91%
    15:00 +11°C° 0.2 mm 6 mps 748 mmHg 92%
    16:00 +11°C° 0.2 mm 6 mps 747 mmHg 92%
    17:00 +11°C° 0.5 mm 6 mps 748 mmHg 92%
    18:00 +13°C° 0.5 mm 5 mps 748 mmHg 92%
    19:00 +13°C° 0.5 mm 5 mps 748 mmHg 92%
    20:00 +12°C° 0.1 mm 5 mps 748 mmHg 92%
    21:00 +12°C° 0.1 mm 4 mps 749 mmHg 92%
    22:00 +11°C° 0.1 mm 4 mps 749 mmHg 93%
    23:00 +11°C° 0 mm 4 mps 749 mmHg 93%

    26 October, Thursday

    Time Temperature Precipitation Wind Pressure Humidity
    00:00 +10°C° 0 mm 4 mps 749 mmHg 93%
    01:00 +10°C° 0 mm 4 mps 749 mmHg 94%
    02:00 +10°C° 0 mm 4 mps 749 mmHg 93%
    03:00 +10°C° 0 mm 4 mps 749 mmHg 93%
    04:00 +10°C° 0 mm 4 mps 749 mmHg 92%
    05:00 +10°C° 0 mm 4 mps 749 mmHg 91%
    06:00 +10°C° 0 mm 4 mps 749 mmHg 90%
    07:00 +10°C° 0 mm 4 mps 749 mmHg 89%
    08:00 +10°C° 0 mm 5 mps 749 mmHg 87%
    09:00 +10°C° 0 mm 5 mps 749 mmHg 85%
    10:00 +10°C° 0 mm 5 mps 749 mmHg 82%
    11:00 +10°C° 0.1 mm 5 mps 748 mmHg 82%
    12:00 +12°C° 0.1 mm 5 mps 748 mmHg 81%
    13:00 +12°C° 0.1 mm 5 mps 748 mmHg 80%
    14:00 +12°C° 0.1 mm 5 mps 748 mmHg 80%
    15:00 +12°C° 0.1 mm 5 mps 747 mmHg 80%
    16:00 +10°C° 0.1 mm 5 mps 747 mmHg 81%
    17:00 +10°C° 0 mm 5 mps 747 mmHg 83%
    18:00 +10°C° 0 mm 4 mps 747 mmHg 86%
    19:00 +10°C° 0 mm 4 mps 747 mmHg 89%
    20:00 +10°C° 0 mm 4 mps 746 mmHg 89%
    21:00 +10°C° 0 mm 4 mps 746 mmHg 90%
    22:00 +8°C° 0 mm 4 mps 746 mmHg 91%
    23:00 +8°C° 0 mm 4 mps 745 mmHg 91%

    27 October, Friday

    Time Temperature Precipitation Wind Pressure Humidity
    00:00 +8°C° 0 mm 4 mps 745 mmHg 90%
    01:00 +8°C° 0 mm 5 mps 745 mmHg 90%
    02:00 +8°C° 0.1 mm 5 mps 744 mmHg 89%
    03:00 +8°C° 0.1 mm 5 mps 743 mmHg 88%
    04:00 +9°C° 0.1 mm 5 mps 743 mmHg 86%
    05:00 +8°C° 0.1 mm 5 mps 742 mmHg 86%
    06:00 +8°C° 0.1 mm 5 mps 742 mmHg 86%
    07:00 +8°C° 0.1 mm 5 mps 741 mmHg 86%
    08:00 +8°C° 0.2 mm 5 mps 741 mmHg 84%
    09:00 +9°C° 0.2 mm 6 mps 740 mmHg 82%
    10:00 +9°C° 0.2 mm 6 mps 740 mmHg 80%
    11:00 +9°C° 0.3 mm 6 mps 739 mmHg 79%
    12:00 +9°C° 0.3 mm 6 mps 739 mmHg 78%
    13:00 +9°C° 0.3 mm 6 mps 738 mmHg 78%
    14:00 +9°C° 0.2 mm 6 mps 738 mmHg 79%
    15:00 +9°C° 0.2 mm 6 mps 738 mmHg 81%
    16:00 +9°C° 0.2 mm 6 mps 737 mmHg 82%
    17:00 +9°C° 0.1 mm 5 mps 738 mmHg 84%
    18:00 +8°C° 0.1 mm 5 mps 738 mmHg 86%
    19:00 +8°C° 0.1 mm 5 mps 738 mmHg 87%
    20:00 +8°C° 0.1 mm 5 mps 738 mmHg 86%
    21:00 +7°C° 0.1 mm 5 mps 738 mmHg 86%
    22:00 +7°C° 0.1 mm 4 mps 738 mmHg 85%
    23:00 +7°C° 0 mm 4 mps 738 mmHg 84%

    28 October, Saturday

    Time Temperature Precipitation Wind Pressure Humidity
    00:00 +7°C° 0 mm 4 mps 737 mmHg 84%
    01:00 +7°C° 0 mm 4 mps 737 mmHg 83%
    02:00 +6°C° 0.2 mm 5 mps 736 mmHg 84%
    03:00 +6°C° 0.2 mm 5 mps 735 mmHg 85%
    04:00 +6°C° 0.2 mm 5 mps 735 mmHg 85%
    05:00 +6°C° 0.6 mm 5 mps 734 mmHg 86%
    06:00 +6°C° 0.6 mm 5 mps 734 mmHg 86%
    07:00 +6°C° 0.6 mm 5 mps 733 mmHg 87%
    08:00 +7°C° 0.2 mm 5 mps 733 mmHg 85%
    09:00 +7°C° 0.2 mm 5 mps 733 mmHg 84%
    10:00 +7°C° 0.2 mm 5 mps 732 mmHg 82%
    11:00 +7°C° 0.5 mm 4 mps 733 mmHg 82%
    12:00 +7°C° 0.5 mm 4 mps 733 mmHg 82%
    13:00 +8°C° 0.5 mm 3 mps 733 mmHg 83%
    14:00 +8°C° 0.6 mm 3 mps 733 mmHg 84%
    15:00 +8°C° 0.6 mm 3 mps 733 mmHg 86%
    16:00 +8°C° 0.6 mm 2 mps 734 mmHg 88%
    17:00 +8°C° 0 mm 3 mps 735 mmHg 89%
    18:00 +7°C° 0 mm 3 mps 736 mmHg 90%
    19:00 +7°C° 0 mm 3 mps 736 mmHg 91%
    20:00 +7°C° 0 mm 3 mps 737 mmHg 91%
    21:00 +7°C° 0 mm 3 mps 738 mmHg 92%
    22:00 +5°C° 0 mm 3 mps 739 mmHg 92%
    23:00 +5°C° 0 mm 3 mps 739 mmHg 92%

    29 October, Sunday

    Time Temperature Precipitation Wind Pressure Humidity
    00:00 +5°C° 0 mm 3 mps 740 mmHg 93%
    01:00 +5°C° 0 mm 3 mps 740 mmHg 93%
    02:00 +5°C° 0 mm 3 mps 740 mmHg 93%
    03:00 +5°C° 0 mm 3 mps 741 mmHg 93%
    04:00 +4°C° 0 mm 3 mps 741 mmHg 93%
    05:00 +4°C° 0 mm 3 mps 741 mmHg 93%
    06:00 +4°C° 0 mm 3 mps 741 mmHg 93%
    07:00 +4°C° 0 mm 3 mps 741 mmHg 93%
    08:00 +5°C° 0 mm 4 mps 741 mmHg 88%
    09:00 +6°C° 0 mm 4 mps 741 mmHg 82%
    10:00 +8°C° 0 mm 5 mps 741 mmHg 77%
    11:00 +8°C° 0.1 mm 5 mps 741 mmHg 78%
    12:00 +7°C° 0.1 mm 6 mps 740 mmHg 79%
    13:00 +7°C° 0.1 mm 6 mps 739 mmHg 80%
    14:00 +8°C° 0.2 mm 6 mps 738 mmHg 82%
    15:00 +8°C° 0.2 mm 6 mps 738 mmHg 84%
    16:00 +8°C° 0.2 mm 7 mps 737 mmHg 86%
    17:00 +8°C° 0.1 mm 7 mps 737 mmHg 83%
    18:00 +8°C° 0.1 mm 7 mps 736 mmHg 81%
    19:00 +8°C° 0.1 mm 7 mps 736 mmHg 79%
    20:00 +8°C° 0.1 mm 7 mps 735 mmHg 79%
    21:00 +8°C° 0.1 mm 7 mps 734 mmHg 79%
    22:00 +8°C° 0.1 mm 7 mps 734 mmHg 80%
    23:00 +7°C° 0.3 mm 8 mps 733 mmHg 77%
    Show more